Regional Weather Roundup
Issued by NWS

Home | Current Version | Previous Version | Graphics & Text | Print | Product List | Glossary On
Versions: 1 2 3 4 5 6 7 8 9 10 11 12 13 14 15 16 17 18 19 20 21 22 23 24 25 26 27 28 29 30 31 32 33 34 35 36 37 38 39 40 41 42 43 44 45 46 47 48 49 50
000
ASUS43 KBIS 241220
RWRND

NORTH DAKOTA REGIONAL WEATHER ROUNDUP
NATIONAL WEATHER SERVICE BISMARCK ND
700 AM CDT FRI OCT 24 2014

NOTE: "FAIR" INDICATES FEW OR NO CLOUDS BELOW 12,000 FEET WITH NO
SIGNIFICANT WEATHER AND/OR OBSTRUCTIONS TO VISIBILITY.


NDZ001>003-009>011-017-241300-
NORTHWEST NORTH DAKOTA

CITY           SKY/WX    TMP DP  RH WIND       PRES   REMARKS
WILLISTON      MOCLDY    42  36  79 S5        29.82R
6HR MIN TEMP:  38; 6HR MAX TEMP:  47;

MINOT          CLEAR     51  35  54 SW14      29.76R
MINOT AFB      PTCLDY    48  37  67 W8        29.75R
$$

NDZ018>021-031>035-040>046-241300-
SOUTHWEST NORTH DAKOTA

CITY           SKY/WX    TMP DP  RH WIND       PRES   REMARKS
BISMARCK       CLOUDY    39  32  76 CALM      29.83S
6HR MIN TEMP:  38; 6HR MAX TEMP:  52;

DICKINSON      MOCLDY    43  31  62 SW6       29.85R
GARRISON         N/A     45  39  79 W3        29.81R
6HR MIN TEMP:  42; 6HR MAX TEMP:  48;

HETTINGER ARPT CLOUDY    41  28  60 NW3       29.89R
$$

NDZ004>008-012>016-024-026-027-054-241300-
NORTHEAST NORTH DAKOTA

CITY           SKY/WX    TMP DP  RH WIND       PRES   REMARKS
GRAND FORKS    PTCLDY    40  35  83 S6        29.74S
GRND FRKS AFB  CLEAR     42  37  79 SW6       29.75S
DEVILS LAKE    PTCLDY    46  36  66 SW9       29.75R
$$

NDZ022-023-025-028>030-036>039-047>053-241300-
SOUTHEAST NORTH DAKOTA

CITY           SKY/WX    TMP DP  RH WIND       PRES   REMARKS
FARGO          MOCLDY    45  40  82 S6        29.80R
6HR MIN TEMP:  45; 6HR MAX TEMP:  54;

JAMESTOWN      MOCLDY    40  35  83 S3        29.79F
$$




USA.gov is the U.S. government's official web portal to all federal, state and local government web resources and services.